[[{"header":{"parameterUnit":"m.s-1","parameterCategory":1,"la1":30.2991,"la2":30.254,"lo1":-89.0895,"lo2":-89.0444,"dx":0.0017,"dy":0.0017,"nx":28,"ny":28,"refTime":"2022-12-24T09:00:00:Z","depth":0,"parameterNumber":2,"parameterNumberName":"U-component_of_WINDS"},"data":[0,0,0,0,0,0,0,0,0,0,0,0,0,0,0,0,0,0,0,0,0,0,0,0,0,0,0,0,0,0,0,0,0,0,0,0,0,0,0,0,0,0,0,0,0,0,0,0,0,0,0,0,0,0,0,0,0,0,2.6963,2.6963,0,2.6961,2.6961,2.6961,2.6917,2.6916,2.6915,2.6914,2.6912,2.6913,2.6914,0,0,0,0,0,0,0,0,0,0,0,0,0,2.6929,2.693,2.6963,2.6963,2.6963,2.6961,2.6961,2.6961,2.6918,2.6916,2.6915,2.6913,2.6912,2.6913,2.6914,0,0,0,0,0,0,0,0,0,0,0,0,0,2.6937,2.693,2.6963,2.6941,2.6939,2.6961,2.6961,2.6961,2.6918,2.6916,2.6914,2.6913,2.6911,2.6913,2.6914,2.6957,0,0,2.6919,2.6919,0,0,0,0,0,0,0,0,2.6937,2.6939,2.6944,2.6942,2.694,2.6938,2.6948,2.696,2.6918,2.6926,2.6914,2.6912,2.6922,2.6922,2.6926,2.6957,2.6957,2.6919,2.692,2.692,2.6921,0,0,0,0,0,0,0,2.6936,2.6938,2.6962,2.6944,2.6942,2.6931,2.6931,2.695,2.6933,2.6925,2.6922,2.6922,2.692,2.6924,2.6925,2.6957,2.6919,2.692,2.6921,2.6922,2.7024,2.7026,0,0,0,0,0,0,2.6939,2.6938,2.6962,2.6962,2.6934,2.6933,2.6933,2.694,2.6933,2.693,2.6924,2.692,2.6923,2.6924,2.6925,2.6975,2.692,2.6922,2.6923,2.7022,2.7025,2.7027,0,0,0,0,0,0,2.6938,2.6941,2.6962,2.6949,2.6951,2.6936,2.6945,2.6941,2.6945,2.6932,2.6929,2.6931,2.6921,2.6923,2.695,2.6974,2.6922,2.6924,2.702,2.7023,2.7026,2.7075,0,0,0,0,0,0,2.6938,2.6941,2.6957,2.695,2.6952,2.6986,2.6946,2.6942,2.6947,2.6943,2.6938,2.6935,2.692,2.6948,2.6951,2.6975,2.6925,2.7018,2.7022,2.7025,2.7071,2.7079,2.7086,0,0,0,0,0,2.6937,2.6971,2.6958,2.6961,2.6971,2.6988,2.6989,2.6971,2.695,2.6965,2.6958,2.6935,2.6972,2.6951,2.6954,2.6979,2.7016,2.702,2.7024,2.7068,2.7078,2.7086,0,0,0,0,0,0,2.698,2.6969,2.6955,2.6988,2.6989,2.698,2.7,2.6982,2.6989,2.6984,2.6962,2.6961,2.6992,2.6988,2.6965,2.7021,2.699,2.6995,2.7022,2.7031,2.7038,2.7038,2.6926,0,0,0,0,0,2.6994,2.7009,2.6998,2.7028,2.703,2.7015,2.7021,2.7008,2.7008,2.7008,2.7002,2.7003,2.7015,2.7023,2.7033,2.7071,2.707,2.709,2.7098,2.7104,2.7108,2.7129,2.7138,2.704,2.704,2.704,0,0,2.7022,2.7018,2.7028,2.7037,2.7036,2.7052,2.7015,2.7033,2.7045,2.7011,2.7035,2.7032,2.7032,2.7065,2.7079,2.7063,2.7135,2.7109,2.7114,2.7115,2.7134,2.7144,2.7152,2.7043,2.7042,2.7042,0,0,2.7081,2.7079,2.7104,2.7105,2.7105,2.7095,2.7102,2.7096,2.7092,2.7117,2.7092,2.7106,2.7126,2.7128,2.7131,2.7193,2.7173,2.7197,2.7236,2.7256,2.7264,2.7271,2.7293,2.7301,2.7202,2.7202,2.7202,0,2.7115,2.7138,2.7119,2.7139,2.7144,2.7116,2.7141,2.7143,2.7146,2.715,2.7133,2.7159,2.7157,2.719,2.7205,2.7209,2.7216,2.7197,2.7264,2.7271,2.7277,2.7298,2.7306,2.7205,2.7205,2.7204,2.7204,0,2.7181,2.7197,2.7217,2.7222,2.7229,2.7252,2.7238,2.7248,2.7234,2.7227,2.7253,2.725,2.7259,2.7267,2.7253,2.7298,2.7289,2.7268,2.7236,2.7289,2.7309,2.7317,2.7209,2.7208,2.7207,2.7206,0,0,2.7264,2.726,2.7268,2.727,2.727,2.7282,2.7304,2.7314,2.7323,2.7327,2.7345,2.7364,2.7346,2.735,2.7337,2.7355,2.7405,2.7332,2.7332,2.7345,2.7455,2.7469,2.7479,2.7392,2.7394,2.7395,2.7454,0,2.7321,2.7358,2.7344,2.7382,2.7398,2.7372,2.7391,2.7393,2.7388,2.74,2.7394,2.7408,2.7382,2.7385,2.7402,2.7395,2.7426,2.7391,2.7409,2.7409,2.7408,2.7489,2.7504,2.756,2.7462,2.7463,2.7464,0,2.7391,2.7399,2.744,2.7437,2.7443,2.7461,2.7469,2.7482,2.7484,2.7479,2.7484,2.7468,2.749,2.746,2.749,2.7466,2.7473,2.7472,2.7473,2.7473,2.7439,2.749,2.7578,2.7586,2.7476,2.7475,2.7474,0,2.7448,2.7469,2.7496,2.7499,2.7497,2.751,2.751,2.7511,2.7518,2.7526,2.7531,2.7541,2.7546,2.7555,2.7542,2.7521,2.7574,2.7543,2.757,2.7571,2.7581,2.7581,2.767,2.7588,2.7588,2.7587,2.7587,0,2.7512,2.7538,2.7522,2.7538,2.7567,2.7551,2.7579,2.7576,2.7578,2.7593,2.7572,2.7588,2.757,2.7584,2.7574,2.7601,2.7604,2.76,2.7597,2.7602,2.7602,2.7605,2.76,2.759,2.7589,2.7589,2.7588,0,2.758,2.757,2.7598,2.7595,2.7595,2.7616,2.7613,2.7629,2.7623,2.7643,2.7647,2.7637,2.7652,2.7641,2.7656,2.765,2.7685,2.7677,2.7684,2.7682,2.771,2.7707,2.7803,2.7815,2.7726,2.7727,2.7728,0,2.7621,2.764,2.764,2.7649,2.7651,2.7666,2.7674,2.7659,2.7668,2.7674,2.7689,2.7702,2.7712,2.7739,2.7733,2.7745,2.7736,2.7769,2.7738,2.7742,2.7736,2.7735,2.7736,2.7775,2.7776,2.7777,2.7778,0,2.7694,2.7689,2.7701,2.7713,2.7723,2.7731,2.7737,2.7746,2.7731,2.7743,2.7759,2.7767,2.7783,2.7797,2.7807,2.7807,2.779,2.7788,2.7795,2.7799,2.7802,2.7801,2.7701,2.7785,2.7785,2.7784,2.7784,2.7783,2.7749,2.7766,2.7768,2.7783,2.7787,2.7794,2.7808,2.7805,2.7818,2.783,2.7821,2.784,2.7844,2.7856,2.7858,2.7873,2.7859,2.7869,2.7872,2.7874,2.7878,2.7801,2.7875,2.7875,2.7874,2.7874,2.7874,0,2.7821,2.7822,2.7836,2.7846,2.7858,2.7843,2.7849,2.786,2.7878,2.7882,2.7893,2.7912,2.7927,2.7923,2.7936,2.7948,2.7941,2.7952,2.795,2.7951,2.789,2.7882,2.7958,2.7958,2.7958,2.7958,2.7958,2.7958,2.786,2.7887,2.7883,2.7912,2.7913,2.7932,2.7937,2.7944,2.7948,2.797,2.7982,2.798,2.7981,2.7995,2.8007,2.8006,2.8011,2.8025,2.8021,2.7963,2.7955,2.7947,2.794,2.8027,2.8027,2.808,2.8081,2.8081]},{"header":{"parameterUnit":"m.s-1","parameterCategory":1,"la1":30.2991,"la2":30.254,"lo1":-89.0895,"lo2":-89.0444,"dx":0.0017,"dy":0.0017,"nx":28,"ny":28,"refTime":"2022-12-24T09:00:00:Z","depth":0,"parameterNumber":3,"parameterNumberName":"V-component_of_WINDS"},"data":[0,0,0,0,0,0,0,0,0,0,0,0,0,0,0,0,0,0,0,0,0,0,0,0,0,0,0,0,0,0,0,0,0,0,0,0,0,0,0,0,0,0,0,0,0,0,0,0,0,0,0,0,0,0,0,0,0,0,-8.2034,-8.2037,0,-8.2247,-8.2249,-8.2252,-8.2195,-8.2191,-8.2187,-8.2183,-8.2398,-8.2407,-8.2417,0,0,0,0,0,0,0,0,0,0,0,0,0,-8.1578,-8.1587,-8.2034,-8.2037,-8.2039,-8.2246,-8.2249,-8.2252,-8.2196,-8.2191,-8.2185,-8.2181,-8.2395,-8.2406,-8.2418,0,0,0,0,0,0,0,0,0,0,0,0,0,-8.1782,-8.159,-8.2034,-8.2036,-8.2039,-8.2246,-8.2249,-8.2253,-8.2197,-8.219,-8.2184,-8.2178,-8.2391,-8.2405,-8.242,-8.2636,0,0,-8.2464,-8.247,0,0,0,0,0,0,0,0,-8.177,-8.1799,-8.2033,-8.2036,-8.2039,-8.2188,-8.2167,-8.2382,-8.2198,-8.2137,-8.2182,-8.2175,-8.2333,-8.2352,-8.2406,-8.2647,-8.2656,-8.2465,-8.2474,-8.248,-8.2484,0,0,0,0,0,0,0,-8.1756,-8.1789,-8.2118,-8.2037,-8.2041,-8.2026,-8.2048,-8.2208,-8.2268,-8.2142,-8.2138,-8.2164,-8.2334,-8.2392,-8.241,-8.2659,-8.2465,-8.2478,-8.2487,-8.2492,-8.3089,-8.3096,0,0,0,0,0,0,-8.174,-8.1778,-8.2111,-8.2124,-8.1887,-8.204,-8.2064,-8.2147,-8.2266,-8.2278,-8.2169,-8.2161,-8.237,-8.2394,-8.2418,-8.2681,-8.248,-8.2494,-8.2502,-8.3082,-8.3091,-8.3099,0,0,0,0,0,0,-8.1731,-8.177,-8.2103,-8.195,-8.1992,-8.2054,-8.2147,-8.2154,-8.2212,-8.2287,-8.2297,-8.2218,-8.2366,-8.2397,-8.2583,-8.2687,-8.25,-8.2514,-8.3074,-8.3085,-8.3095,-8.3207,0,0,0,0,0,0,-8.1718,-8.1767,-8.1851,-8.1953,-8.2,-8.2265,-8.2154,-8.2163,-8.2238,-8.2229,-8.2335,-8.2347,-8.2364,-8.2562,-8.2597,-8.2704,-8.2525,-8.3065,-8.3079,-8.3091,-8.3195,-8.322,-8.3243,0,0,0,0,0,-8.1702,-8.1873,-8.1855,-8.1896,-8.2106,-8.2271,-8.2298,-8.2315,-8.2247,-8.2331,-8.2379,-8.2344,-8.267,-8.2581,-8.2621,-8.2733,-8.3058,-8.3075,-8.309,-8.3184,-8.3215,-8.3242,0,0,0,0,0,0,-8.1781,-8.1886,-8.1868,-8.2078,-8.2166,-8.2261,-8.2368,-8.2347,-8.2456,-8.2443,-8.2458,-8.2483,-8.2673,-8.2721,-8.262,-8.295,-8.2854,-8.2879,-8.2911,-8.2942,-8.2966,-8.295,-8.2537,0,0,0,0,0,-8.1823,-8.1949,-8.2034,-8.2211,-8.2257,-8.2305,-8.2378,-8.2383,-8.2475,-8.2512,-8.2573,-8.2663,-8.2786,-8.2866,-8.2984,-8.3201,-8.3224,-8.3298,-8.3322,-8.3341,-8.3363,-8.3482,-8.3517,-8.3151,-8.3151,-8.3151,0,0,-8.1911,-8.1984,-8.2063,-8.2229,-8.2298,-8.2428,-8.2337,-8.2478,-8.2575,-8.2533,-8.2712,-8.2761,-8.2862,-8.3065,-8.3157,-8.3111,-8.3469,-8.3362,-8.3377,-8.3388,-8.3502,-8.3537,-8.3568,-8.3162,-8.316,-8.3159,0,0,-8.2137,-8.2205,-8.2361,-8.2432,-8.2539,-8.257,-8.2607,-8.2707,-8.2737,-8.2918,-8.2889,-8.3004,-8.3215,-8.3289,-8.3354,-8.361,-8.3582,-8.3648,-8.3774,-8.389,-8.3919,-8.3945,-8.4037,-8.407,-8.3669,-8.3669,-8.3669,0,-8.2233,-8.2429,-8.2443,-8.2588,-8.2662,-8.2631,-8.2788,-8.2857,-8.2996,-8.3048,-8.2994,-8.3259,-8.3325,-8.3546,-8.3608,-8.3662,-8.3705,-8.3636,-8.3914,-8.394,-8.3964,-8.4052,-8.4086,-8.3677,-8.3676,-8.3675,-8.3674,0,-8.2541,-8.2678,-8.279,-8.2926,-8.3013,-8.3164,-8.3201,-8.3287,-8.3284,-8.3321,-8.3506,-8.3584,-8.3717,-8.3769,-8.3768,-8.399,-8.3958,-8.391,-8.3814,-8.4006,-8.4089,-8.4123,-8.3687,-8.3685,-8.3682,-8.368,0,0,-8.2824,-8.2967,-8.3008,-8.307,-8.3185,-8.3291,-8.344,-8.3571,-8.3644,-8.3741,-8.3867,-8.4047,-8.4003,-8.4077,-8.4083,-8.4186,-8.4385,-8.4124,-8.4127,-8.4171,-8.4635,-8.4671,-8.471,-8.4366,-8.4373,-8.4378,-8.4627,0,-8.3061,-8.3325,-8.3342,-8.358,-8.3707,-8.3679,-8.3809,-8.3894,-8.3932,-8.4045,-8.4086,-8.4215,-8.4146,-8.4191,-8.4291,-8.4339,-8.4478,-8.4321,-8.4483,-8.4489,-8.446,-8.4754,-8.4793,-8.5023,-8.4659,-8.4665,-8.4669,0,-8.3374,-8.3481,-8.3732,-8.3831,-8.3884,-8.4001,-8.4123,-8.4231,-8.4326,-8.4347,-8.4431,-8.4423,-8.4576,-8.4475,-8.4686,-8.4579,-8.4646,-8.468,-8.4689,-8.4705,-8.4591,-8.4778,-8.5097,-8.5132,-8.472,-8.4716,-8.4712,0,-8.3556,-8.3763,-8.3941,-8.3994,-8.4113,-8.4196,-8.4249,-8.4339,-8.4417,-8.4523,-8.4574,-8.4696,-8.4763,-8.4858,-8.4884,-8.4807,-8.5095,-8.4995,-8.5116,-8.5116,-8.5178,-8.5174,-8.5514,-8.5221,-8.522,-8.522,-8.5219,0,-8.382,-8.3974,-8.4024,-8.4133,-8.4306,-8.4325,-8.4495,-8.4543,-8.4623,-8.4741,-8.4724,-8.4835,-8.4862,-8.4978,-8.4999,-8.5171,-8.5201,-8.5222,-8.5226,-8.5224,-8.5222,-8.5269,-8.5254,-8.5229,-8.5227,-8.5225,-8.5223,0,-8.4052,-8.4092,-8.4283,-8.4381,-8.4409,-8.4532,-8.4615,-8.472,-8.4756,-8.4906,-8.4942,-8.4999,-8.5135,-8.517,-8.5332,-8.5346,-8.5549,-8.5537,-8.5517,-8.5517,-8.5637,-8.5626,-8.6019,-8.6072,-8.5744,-8.5747,-8.5749,0,-8.4219,-8.4337,-8.4448,-8.4526,-8.4583,-8.4709,-8.4789,-8.4812,-8.4896,-8.5014,-8.5105,-8.5239,-8.5347,-8.5565,-8.5621,-8.5745,-8.5736,-8.5866,-8.5755,-8.575,-8.574,-8.5733,-8.5745,-8.5887,-8.589,-8.5893,-8.5896,0,-8.451,-8.4524,-8.464,-8.4764,-8.4859,-8.4958,-8.5052,-8.5116,-8.5152,-8.5247,-8.5387,-8.5471,-8.5637,-8.577,-8.5896,-8.5949,-8.593,-8.593,-8.5965,-8.5965,-8.5949,-8.596,-8.5576,-8.5921,-8.5919,-8.5917,-8.5915,-8.5914,-8.4715,-8.482,-8.4914,-8.5044,-8.5118,-8.5206,-8.531,-8.536,-8.5476,-8.5614,-8.562,-8.5772,-8.5865,-8.6031,-8.6093,-8.6211,-8.6172,-8.6222,-8.6235,-8.6247,-8.6258,-8.5929,-8.6234,-8.6233,-8.6232,-8.6232,-8.6231,0,-8.5006,-8.5066,-8.5185,-8.5318,-8.5421,-8.5393,-8.5496,-8.5583,-8.5717,-8.5806,-8.5913,-8.6074,-8.6203,-8.6269,-8.6398,-8.648,-8.6474,-8.6513,-8.6508,-8.6521,-8.6285,-8.6243,-8.6516,-8.6516,-8.6516,-8.6516,-8.6516,-8.6516,-8.517,-8.5346,-8.5371,-8.5583,-8.5641,-8.579,-8.5852,-8.5933,-8.6004,-8.6185,-8.6293,-8.6335,-8.6415,-8.6549,-8.6667,-8.6683,-8.6731,-8.6776,-8.6787,-8.6566,-8.6537,-8.6509,-8.647,-8.6786,-8.6786,-8.7013,-8.7015,-8.7016]}]]